Regional Weather Roundup
Issued by NWS

Home | Current Version | Previous Version | Graphics & Text | Print | Product List | Glossary On
Versions: 1 2 3 4 5 6 7 8 9 10 11 12 13 14 15 16 17 18 19 20 21 22 23 24 25 26 27 28 29 30 31 32 33 34 35 36 37 38 39 40 41 42 43 44 45 46 47 48 49 50
000
ASUS43 KLOT 280708
RWRIL

ILLINOIS REGIONAL WEATHER ROUNDUP
NATIONAL WEATHER SERVICE CHICAGO/ROMEOVILLE IL
200 AM CDT SAT MAY 28 2016

NOTE: "FAIR" INDICATES FEW OR NO CLOUDS BELOW 12,000 FEET WITH NO
SIGNIFICANT WEATHER AND/OR OBSTRUCTIONS TO VISIBILITY.

* THESE STATIONS ARE NOT UNDER NWS QUALITY CONTROL. THEY ALSO MAY NOT
  REPORT WEATHER SUCH AS PRECIPITATION OR FOG.

ILZ001-002-007-009-015-016-024-280800-
NORTHWEST ILLINOIS

CITY           SKY/WX    TMP DP  RH WIND       PRES   REMARKS
MOLINE         CLOUDY    71  65  81 S13       29.74F
STERLING*      CLOUDY    70  66  87 S10       29.79F
SAVANNA*       MOCLDY    70  67  92 S13G22    29.75F
$$

ILZ003-004-008-010-011-017-018-280800-
NORTH CENTRAL ILLINOIS

CITY           SKY/WX    TMP DP  RH WIND       PRES   REMARKS
ROCKFORD       PTCLDY    70  66  87 S12       29.83S
FREEPORT*      CLOUDY    68  66  94 S16       29.81S
ROCHELLE*      CLOUDY    69  65  89 S13       29.82F
DE KALB*       CLOUDY    68  65  90 S12       29.84F
$$

ILZ005-006-012>014-019>023-280800-
NORTHEAST ILLINOIS

CITY           SKY/WX    TMP DP  RH WIND       PRES   REMARKS
CHICAGO-OHARE  CLOUDY    68  65  90 S8        29.86S
CHICAGO-MIDWAY CLOUDY    71  64  78 S10       29.87R
AURORA         CLOUDY    70  65  84 S9        29.85S
LANSING*       CLOUDY    67  64  87 S6        29.89S
JOLIET*        CLOUDY    71  66  86 S7        29.86S
WAUKEGAN       CLOUDY    69  65  86 S10       29.85S
DUPAGE AIRPORT CLOUDY    69  63  81 S10       29.85S
KANKAKEE*      PTCLDY    68  65  90 SE8       29.89S
WHEELING       MOCLDY    69  64  84 S8        29.86F
MORRIS*        CLOUDY    69  65  88 S8        29.84S
ROMEOVILLE*    CLOUDY    68  63  83 S10       29.87R
NORTHERLY ISL    N/A     70  63  78 S7          N/A
NORTHERLY ISL    N/A     70  63  78 S7          N/A
$$

LMZ740>746-280800-
SOUTHERN LAKE MICHIGAN

STATION/POSITION SKY/WX   TEMP    WIND        PRES    VSBY  WAVE
                          AIR SEA DIR/SP/G                  HT/PER
                          (F)     (DEG/KT/KT) (MB)    (MI)  (FT/S)
SOUTHERN BUOY              55 50  150/ 10/ 12 1011.3F         2/ 3
WILMETTE HARBOR            60 53  160/  6/  8   N/A           1/ 2
HARRISON CRIB              71     190/ 15/ 16   N/A
BURNHAM HARBOR             70     170/  9/ 10   N/A
CALUMET HARBOR             71                 1011.2F
BURNS HARBOR               71     190/  8/ 15 1012.5F
MICHIGAN CITY              70     140/  9/ 13   N/A
MICHIGAN CITY 6N           65 58  170/  8/  8   N/A           1
ST. JOSEPH                 66 61  140/  8/ 10   N/A           1/ 3
$$

ILZ025>027-034>036-040-047-049-050-058-095>099-280800-
WEST-CENTRAL ILLINOIS

CITY           SKY/WX    TMP DP  RH WIND       PRES   REMARKS
QUINCY         CLOUDY    69  66  90 S9        29.78S
GALESBURG*     CLOUDY    68  67  94 S14G21    29.77S
MACOMB*        CLOUDY    69  67  94 S17       29.80S
JACKSONVILLE*  CLOUDY    70  67  89 S10G20    29.81F
PITTSFIELD*    CLOUDY    70  68  94 S12       29.81F
$$

ILZ028>032-037-038-041>044-048-051>054-059>061-280800-
CENTRAL ILLINOIS

CITY           SKY/WX    TMP DP  RH WIND       PRES   REMARKS
PONTIAC        CLOUDY    70  67  92 SE10      29.86S
BLOOMINGTON    LGT RAIN  69  68  97 S17       29.86S
DECATUR        MOCLDY    71  64  78 S15       29.86R
PEORIA         CLOUDY    70  66  87 S12       29.80F
LACON*         CLOUDY    69  65  89 S10       29.80F
LINCOLN*       CLOUDY    71  67  87 S15G21    29.83S
SPRINGFIELD    CLOUDY    72  66  81 S15       29.83S
TAYLORVILLE    CLOUDY    69  66  92 S12       29.85S
$$

ILZ033-039-045-046-055>057-062-063-280800-
EAST-CENTRAL ILLINOIS

CITY           SKY/WX    TMP DP  RH WIND       PRES   REMARKS
CHAMPAIGN      PTCLDY    68  65  90 SE12      29.88F
RANTOUL*       CLOUDY    69  67  93 SE10      29.88F
MATTOON        PTCLDY    71  63  75 S12       29.88S
PARIS*         CLOUDY    68  65  89 SE6       29.92S
$$

ILZ079-100>102-280800-
SOUTHWEST ILLINOIS

CITY           SKY/WX    TMP DP  RH WIND       PRES   REMARKS
ALTON          MOCLDY    70  65  84 S15G23    29.85S
BELLEVILLE     CLOUDY    70  70  99 VRB5      29.85R
CAHOKIA*       MOCLDY    72  64  76 S7        29.84S
SPARTA*        PTCLDY    69  65  88 S6        29.89S
$$

ILZ064>066-069>071-074>076-080>082-084>086-088>090-092>094-280800-
SOUTH-CENTRAL ILLINOIS

CITY           SKY/WX    TMP DP  RH WIND       PRES   REMARKS
CARBONDALE     MOCLDY    69  65  86 S13       29.89S
CAIRO*         CLOUDY    70  67  89 S5        29.91S
EFFINGHAM*     CLOUDY    70  67  92 SE7       29.91S
MARION         CLOUDY    72  68  88 SW8       29.92R
MT. VERNON     CLOUDY    70  63  78 SW12      29.91R
CENTRALIA*     CLOUDY    70  68  92 S12       29.89S
SALEM*         CLOUDY    71  66  84 S6        29.90R
METROPOLIS*    CLOUDY    73  67  81 CALM      29.93R
$$

ILZ067-068-072-073-078-083-087-091-280800-
SOUTHEAST ILLINOIS

CITY           SKY/WX    TMP DP  RH WIND       PRES   REMARKS
LAWRENCEVILLE  PTCLDY    74  65  73 S13       29.94R
FLORA*         PTCLDY    71  66  86 S7        29.91S
FAIRFIELD*     CLOUDY    72  65  80 S6        29.90S
HARRISBURG*    CLOUDY    71  67  87 SE7       29.92S
ROBINSON*      PTCLDY    72  64  76 S10G17    29.94R
CARMI*         PTCLDY    71  66  85 S10       29.92S
$$

ABBREVIATIONS USED IN REMARKS
   TC - TEMPERATURE IN CELSIUS
  WCI - WIND CHILL INDEX
   HX - HEAT INDEX
  VSB - VISIBILITY
$$





USA.gov is the U.S. government's official web portal to all federal, state and local government web resources and services.